Edwards AFB, CA

4:58 AM PDT on June 27, 2017 (GMT -0700)
Edwards Air Force Base

Weather History for KEDW - July, 2013

Change the Weather History Date:

Saturday, July 20, 2013

  Actual Average Record
Temperature  
Mean Temperature 90 °F -  
Max Temperature 104 °F 98 °F 105 °F (2000)
Min Temperature 75 °F 65 °F 57 °F (1996)
Cooling Degree Days 24    
Growing Degree Days 40 (Base 50)    
Moisture  
Dew Point 47 °F    
Average Humidity 24    
Maximum Humidity 43    
Minimum Humidity 12    
Precipitation  
Precipitation 0.00 in - - ()
Sea Level Pressure  
Sea Level Pressure 29.75 in    
Wind  
Wind Speed 10 mph (SW)    
Max Wind Speed 30 mph    
Max Gust Speed 30 mph    
Visibility 10 miles    
Events      
Averages and records for this station are not official NWS values.
T = Trace of Precipitation, MM = Missing Value Source: NWS Daily Summary

Daily Weather History Graph

Daily Weather History Graph

Search for Another Location

Airport or City:

Trip Planner

Search our weather history database for the weather conditions in past years. The results will help you decide how hot, cold, wet, or windy it might be!

Date:

Astronomy

Jul. 20, 2013 Rise Set
Actual Time 5:52 AM PDT 8:02 PM PDT
Civil Twilight 5:24 AM PDT 8:31 PM PDT
Nautical Twilight 4:49 AM PDT 9:06 PM PDT
Astronomical Twilight 4:11 AM PDT 9:43 PM PDT
Moon 6:11 PM PDT (7/20) 3:37 AM PDT (7/20)
Length of Visible Light 15h 07m
Length of Day
14h 10m
Waxing Gibbous, 94% of the Moon is Illuminated
Jul 20
Waxing Gibbous
Jul 22
Full
Jul 29
Last Quarter
Aug 6
New
Aug 14
First Quarter

Hourly Weather History & Observations

Time (PDT) Temp. Heat Index Dew Point Humidity Pressure Visibility Wind Dir Wind Speed Gust Speed Precip Events Conditions
12:58 AM 77.4 °F - 44.1 °F 31% 29.75 in 10.0 mi SSW 11.5 mph - N/A   Clear
1:58 AM 76.5 °F - 44.8 °F 32% 29.76 in 10.0 mi South 9.2 mph - N/A   Clear
2:58 AM 76.5 °F - 42.8 °F 30% 29.77 in 10.0 mi SSE 10.4 mph - N/A   Clear
3:58 AM 76.3 °F - 42.3 °F 30% 29.74 in 10.0 mi West 10.4 mph - N/A   Clear
4:58 AM 79.7 °F - 40.1 °F 24% 29.73 in 10.0 mi West 6.9 mph - N/A   Partly Cloudy
5:13 AM 77.0 °F - 39.2 °F 26% 29.82 in 10.0 mi WNW 4.6 mph - N/A   Mostly Cloudy
5:58 AM 75.7 °F - 39.0 °F 27% 29.73 in 50.0 mi SE 5.8 mph - N/A   Mostly Cloudy
6:58 AM 76.8 °F - 39.9 °F 27% 29.76 in 40.0 mi SSW 5.8 mph - N/A   Overcast
7:48 AM 78.8 °F - 41.0 °F 26% 29.87 in 40.0 mi SW 5.8 mph - N/A   Mostly Cloudy
7:58 AM 80.1 °F - 41.0 °F 25% 29.79 in 40.0 mi SSW 5.8 mph - N/A   Mostly Cloudy
8:50 AM 84.2 °F - 41.0 °F 22% 29.87 in 40.0 mi Variable 3.5 mph - N/A   Partly Cloudy
8:58 AM 84.9 °F - 41.4 °F 21% 29.80 in 40.0 mi South 4.6 mph - N/A   Partly Cloudy
9:58 AM 89.8 °F - 41.4 °F 18% 29.78 in 40.0 mi Variable 4.6 mph - N/A   Scattered Clouds
10:58 AM 93.6 °F - 40.1 °F 16% 29.78 in 40.0 mi Variable 4.6 mph - N/A   Mostly Cloudy
11:58 AM 95.0 °F - 41.2 °F 15% 29.76 in 40.0 mi NNE 3.5 mph - N/A   Mostly Cloudy
12:58 PM 98.6 °F - 42.3 °F 14% 29.75 in 40.0 mi Variable 4.6 mph - N/A   Mostly Cloudy
1:58 PM 99.9 °F - 43.3 °F 14% 29.73 in 40.0 mi Variable 3.5 mph - N/A   Mostly Cloudy
2:58 PM 101.5 °F - 47.1 °F 16% 29.70 in 30.0 mi Variable 4.6 mph - N/A   Mostly Cloudy
3:28 PM 104.0 °F - 42.8 °F 12% 29.78 in 30.0 mi WSW 12.7 mph 17.3 mph N/A   Mostly Cloudy
3:42 PM 104.0 °F - 48.2 °F 15% 29.78 in 30.0 mi WSW 15.0 mph 23.0 mph N/A   Mostly Cloudy
3:47 PM 104.0 °F - 50.0 °F 16% 29.78 in 30.0 mi WSW 29.9 mph - N/A   Mostly Cloudy
3:53 PM 102.2 °F - 51.8 °F 18% 29.78 in 30.0 mi WSW 21.9 mph - N/A   Mostly Cloudy
3:58 PM 102.0 °F - 51.3 °F 18% 29.69 in 30.0 mi WSW 24.2 mph 29.9 mph N/A   Mostly Cloudy
4:58 PM 98.1 °F 96.1 °F 54.3 °F 23% 29.69 in 30.0 mi SW 18.4 mph 25.3 mph N/A   Mostly Cloudy
5:58 PM 96.3 °F 94.4 °F 55.4 °F 25% 29.69 in 30.0 mi WSW 19.6 mph 26.5 mph N/A   Mostly Cloudy
6:58 PM 93.0 °F 91.4 °F 56.5 °F 29% 29.69 in 10.0 mi WSW 21.9 mph - N/A   Mostly Cloudy
7:58 PM 90.3 °F 88.5 °F 55.9 °F 31% 29.71 in 10.0 mi SW 16.1 mph - N/A   Mostly Cloudy
8:58 PM 88.3 °F 86.9 °F 56.3 °F 34% 29.70 in 10.0 mi SW 12.7 mph - N/A   Mostly Cloudy
9:58 PM 86.0 °F 85.2 °F 58.1 °F 39% 29.73 in 10.0 mi SSW 10.4 mph - N/A   Overcast
10:58 PM 84.6 °F 83.9 °F 58.1 °F 40% 29.73 in 10.0 mi SW 12.7 mph - N/A   Overcast
11:58 PM 82.8 °F 82.5 °F 57.9 °F 43% 29.73 in 10.0 mi SW 10.4 mph - N/A   Mostly Cloudy